Weather reports worldwide

Advertisment
Cap Corse, France (7785): temperature & dewpoint: 11.07.2018 15:00:00 - 17.07.2018 15:00:00 (CEST)Cap Corse, France (7785): wind speed & gusts: 11.07.2018 15:00:00 - 17.07.2018 15:00:00 (CEST)Cap Corse, France (7785): wind direction: 11.07.2018 15:00:00 - 17.07.2018 15:00:00 (CEST)Cap Corse, France (7785): reduced air pressure: 11.07.2018 15:00:00 - 17.07.2018 15:00:00 (CEST)Cap Corse, France (7785): visibility: 11.07.2018 15:00:00 - 17.07.2018 15:00:00 (CEST)Cap Corse, France (7785): precipitation: 11.07.2018 15:00:00 - 17.07.2018 15:00:00 (CEST)
Date & Time tt [°C] td [°C] ff [km/h] ff [kn] fx [km/h] fx [kn] dd ppp [hPa] vv [km] rr [mm]
17.07.2018 15:00:00 27,0 19,9 32 17 56 31 WSW 1013,0 - 0,0
17.07.2018 14:00:00 27,2 19,3 29 16 54 29 WSW 1013,1 30 0,0
17.07.2018 13:00:00 26,8 18,9 27 14 50 27 WSW 1013,2 - 0,0
17.07.2018 12:00:00 26,6 19,0 31 17 53 29 WSW 1012,8 - 0,0
17.07.2018 11:00:00 26,0 18,4 29 16 52 28 WSW 1012,7 30 0,0
17.07.2018 10:00:00 25,5 18,2 34 18 64 35 WSW 1012,1 - 0,0
17.07.2018 09:00:00 24,5 18,7 38 20 61 33 W 1011,7 - 0,0
17.07.2018 08:00:00 23,5 17,7 35 19 68 37 W 1011,5 15 0,0
17.07.2018 07:00:00 22,7 18,2 39 21 67 36 WSW 1010,9 - 0,0
17.07.2018 06:00:00 22,3 17,9 31 17 64 35 WSW 1011,1 - 0,0
17.07.2018 05:00:00 22,6 17,7 46 25 67 36 W 1010,6 - 0,0
17.07.2018 04:00:00 22,5 18,1 50 27 66 36 W 1009,8 - 0,0
17.07.2018 03:00:00 21,6 16,8 39 21 61 33 W 1010,2 - 0,0
17.07.2018 02:00:00 21,6 16,8 26 14 37 20 W 1010,2 - 0,0
17.07.2018 01:00:00 21,6 17,0 25 14 38 21 W 1010,0 - 0,0
17.07.2018 00:00:00 20,9 16,9 14 8 31 17 W 1010,1 - 0,0
16.07.2018 23:00:00 20,8 17,4 19 11 31 17 NNW 1010,2 - 0,0
16.07.2018 22:00:00 19,7 16,9 24 13 69 37 SE 1010,8 - 0,0
16.07.2018 21:00:00 20,2 17,0 57 31 - - WNW 1010,0 - -
16.07.2018 20:00:00 25,7 21,4 32 18 48 26 W 1007,8 - 0,0
16.07.2018 19:00:00 26,8 20,6 37 20 59 32 W 1007,8 - 0,0
16.07.2018 18:00:00 28,1 20,1 36 19 63 34 WSW 1009,0 - 0,0
16.07.2018 17:00:00 31,6 14,7 32 17 56 30 WSW 1008,4 15 0,0
16.07.2018 16:00:00 32,1 20,0 15 8 63 34 SSE 1008,3 - 0,0
16.07.2018 15:00:00 29,0 21,5 37 20 60 32 ESE 1008,5 - 0,0
16.07.2018 14:00:00 28,1 20,9 40 21 59 32 SE 1009,2 15 0,0
16.07.2018 13:00:00 28,2 20,0 40 22 59 32 SE 1010,2 - 0,0
16.07.2018 12:00:00 28,9 19,0 29 16 52 28 SE 1011,0 - 0,0
16.07.2018 11:00:00 27,2 18,2 23 13 40 21 SSE 1012,4 15 0,0
16.07.2018 10:00:00 26,3 20,8 23 12 31 17 SE 1012,0 - 0,0
16.07.2018 09:00:00 27,0 18,8 10 6 19 10 E 1012,6 - 0,0
16.07.2018 08:00:00 25,6 20,4 6 3 10 6 E 1013,1 15 0,0
16.07.2018 07:00:00 23,4 19,3 3 1 10 5 SW 1013,6 - 0,0
16.07.2018 06:00:00 22,4 17,1 3 1 20 11 SW 1013,1 - 0,0
16.07.2018 05:00:00 22,6 19,4 4 2 26 14 WSW 1013,5 15 0,0
16.07.2018 04:00:00 23,8 20,1 15 8 24 13 W 1014,1 - 0,0
16.07.2018 03:00:00 22,8 18,8 11 6 14 8 WSW 1014,2 - 0,0
16.07.2018 02:00:00 23,4 18,7 11 6 14 7 WSW 1014,2 - 0,0
16.07.2018 01:00:00 23,5 17,5 3 2 19 10 SSE 1013,9 - 0,0
16.07.2018 00:00:00 25,0 17,0 14 8 40 22 WSW 1014,4 - 0,0
15.07.2018 23:00:00 26,0 16,0 13 7 29 15 SW 1014,6 - 0,0
15.07.2018 22:00:00 25,6 15,6 17 9 40 22 SSW 1014,1 - 0,0
15.07.2018 21:00:00 26,0 16,3 21 11 49 26 SW 1013,4 - 0,0
15.07.2018 20:00:00 27,0 17,5 25 14 53 29 SW 1013,0 15 0,0
15.07.2018 19:00:00 27,3 20,1 29 16 54 29 W 1013,3 - 0,0
15.07.2018 18:00:00 27,5 20,6 31 17 56 30 WSW 1013,6 - 0,0
15.07.2018 17:00:00 28,1 20,1 28 15 54 29 W 1013,9 15 0,0
15.07.2018 16:00:00 29,0 19,6 27 14 52 28 WSW 1014,1 - 0,0
15.07.2018 15:00:00 29,0 18,5 24 13 45 25 W 1014,4 - 0,0
15.07.2018 14:00:00 28,8 19,1 24 13 45 24 WSW 1014,5 15 0,0
15.07.2018 13:00:00 27,7 21,0 23 12 48 26 WSW 1014,7 - 0,0
15.07.2018 12:00:00 27,3 21,3 26 14 47 25 WSW 1015,0 - 0,0
15.07.2018 11:00:00 27,4 21,4 28 15 55 30 WSW 1014,8 15 0,0
15.07.2018 10:00:00 26,2 21,2 31 17 56 31 SW 1014,4 - 0,0
15.07.2018 09:00:00 25,6 21,1 34 18 56 31 WSW 1014,5 - 0,0
15.07.2018 08:00:00 24,9 21,4 32 18 52 28 WSW 1014,1 16 0,0
15.07.2018 07:00:00 24,1 21,2 26 14 55 30 WSW 1014,0 - 0,0
15.07.2018 06:00:00 23,6 20,7 31 17 46 25 WSW 1013,7 - 0,0
15.07.2018 05:00:00 23,5 21,4 28 15 42 23 W 1013,7 14 0,0
15.07.2018 04:00:00 25,1 19,5 29 15 45 24 W 1013,5 - 0,0
15.07.2018 03:00:00 24,2 19,7 21 11 41 22 WSW 1013,6 - 0,0
15.07.2018 02:00:00 26,4 16,9 23 12 53 29 WSW 1013,4 - 0,0
15.07.2018 01:00:00 25,6 19,0 20 11 54 29 SW 1013,8 - 0,0
15.07.2018 00:00:00 25,8 18,5 19 10 52 28 SW 1014,0 - 0,0
14.07.2018 23:00:00 25,2 20,2 28 15 58 31 WSW 1013,9 - 0,0
14.07.2018 22:00:00 27,7 15,0 31 17 66 36 WSW 1013,8 - 0,0
14.07.2018 21:00:00 27,9 15,2 42 23 72 39 SW 1013,1 - 0,0
14.07.2018 20:00:00 28,0 17,8 40 22 68 37 SW 1012,6 - 0,0
14.07.2018 19:00:00 28,7 20,2 36 19 71 38 SW 1012,6 - 0,0
14.07.2018 18:00:00 33,6 18,9 7 4 29 16 WNW 1012,7 - 0,0
14.07.2018 17:00:00 33,9 17,2 16 9 44 24 SSE 1012,7 15 0,0
14.07.2018 16:00:00 34,0 16,4 32 18 51 27 SSE 1012,8 - 0,0
14.07.2018 15:00:00 31,8 19,4 36 20 50 27 SSE 1013,9 - 0,0
14.07.2018 14:00:00 33,0 21,2 20 11 34 18 ESE 1014,2 - 0,0
14.07.2018 13:00:00 31,6 20,2 5 3 14 7 N 1015,0 - 0,0
14.07.2018 12:00:00 30,9 19,3 8 5 21 11 W 1015,3 - 0,0
14.07.2018 11:00:00 30,9 20,8 9 5 43 23 SE 1015,8 - 0,0
14.07.2018 10:00:00 28,6 20,9 19 11 39 21 E 1016,2 - 0,0
14.07.2018 09:00:00 26,5 21,3 23 12 40 22 ESE 1016,8 - 0,0
14.07.2018 08:00:00 25,2 20,0 13 7 21 11 E 1016,9 15 0,0
14.07.2018 07:00:00 23,2 19,6 0 0 11 6 N 1017,3 - 0,0
14.07.2018 06:00:00 23,0 19,2 8 4 21 11 E 1016,9 - 0,0
14.07.2018 05:00:00 21,7 16,6 7 4 9 5 W 1017,2 - 0,0
14.07.2018 04:00:00 22,0 15,6 5 3 7 4 WNW 1016,8 - 0,0
14.07.2018 03:00:00 22,2 14,6 0 0 11 6 N 1016,9 - 0,0
14.07.2018 02:00:00 22,6 15,4 8 4 13 7 E 1017,1 - 0,0
14.07.2018 01:00:00 22,9 12,5 6 3 16 9 E 1017,5 - 0,0
14.07.2018 00:00:00 22,8 14,1 12 6 14 7 W 1017,7 - 0,0
13.07.2018 23:00:00 23,3 13,2 5 3 16 9 W 1017,1 - 0,0
13.07.2018 22:00:00 23,5 17,7 4 2 16 8 ESE 1017,4 - 0,0
13.07.2018 21:00:00 25,5 14,9 4 2 26 14 NE 1016,4 - 0,0
13.07.2018 20:00:00 26,1 15,2 16 9 29 16 W 1016,4 - 0,0
13.07.2018 19:00:00 27,4 19,7 20 11 30 16 W 1016,7 - 0,0
13.07.2018 18:00:00 29,6 15,3 17 9 32 17 W 1016,6 - 0,0
13.07.2018 17:00:00 29,5 19,2 17 9 21 12 W 1016,7 20 0,0
13.07.2018 16:00:00 30,4 16,8 14 8 20 11 W 1016,8 - 0,0
13.07.2018 15:00:00 30,6 17,7 15 8 27 14 NW 1016,9 - 0,0
13.07.2018 14:00:00 30,4 17,5 17 9 26 14 ENE 1017,1 20 0,0
13.07.2018 13:00:00 29,1 20,3 11 6 23 13 ENE 1017,5 - 0,0
13.07.2018 12:00:00 27,7 17,2 9 5 11 6 WNW 1017,9 - 0,0
13.07.2018 11:00:00 28,7 13,4 4 2 13 7 NW 1017,6 35 0,0
13.07.2018 10:00:00 26,8 15,8 10 5 13 7 W 1017,6 - 0,0
13.07.2018 09:00:00 26,3 15,7 6 3 14 8 W 1017,4 - 0,0
13.07.2018 08:00:00 26,0 13,1 3 1 13 7 WSW 1017,1 18 0,0
13.07.2018 07:00:00 25,1 13,6 4 2 9 5 ENE 1017,0 - 0,0
13.07.2018 06:00:00 22,4 11,8 0 0 5 3 N 1017,1 - 0,0
13.07.2018 05:00:00 23,2 11,9 4 2 20 11 NE 1016,7 - 0,0
13.07.2018 04:00:00 23,5 13,9 7 4 24 13 ENE 1016,6 - 0,0
13.07.2018 03:00:00 22,3 14,4 4 2 13 7 NNW 1016,7 - 0,0
13.07.2018 02:00:00 22,2 14,1 5 3 9 5 WSW 1016,5 - 0,0
13.07.2018 01:00:00 22,9 15,2 8 4 22 12 SSW 1016,7 - 0,0
13.07.2018 00:00:00 23,6 14,9 12 7 28 15 WSW 1016,5 - 0,0
12.07.2018 23:00:00 23,5 15,3 11 6 29 16 W 1016,7 - 0,0
12.07.2018 22:00:00 24,1 15,6 18 10 29 16 WSW 1016,1 - 0,0
12.07.2018 21:00:00 24,4 17,1 13 7 18 10 W 1015,6 - 0,0
12.07.2018 20:00:00 25,8 17,2 12 7 18 10 W 1015,5 - 0,0
12.07.2018 19:00:00 26,1 18,8 5 3 15 8 N 1015,3 - 0,0
12.07.2018 18:00:00 27,5 17,9 5 3 29 15 WSW 1015,5 - 0,0
12.07.2018 17:00:00 28,0 16,6 17 9 30 16 W 1015,8 20 0,0
12.07.2018 16:00:00 28,1 17,3 17 9 33 18 W 1015,7 - 0,0
12.07.2018 15:00:00 28,6 17,5 16 9 28 15 W 1015,9 - 0,0
12.07.2018 14:00:00 29,2 17,4 17 9 36 20 W 1016,0 20 0,0
12.07.2018 13:00:00 28,4 17,0 19 10 31 17 W 1016,2 - 0,0
12.07.2018 12:00:00 27,8 15,8 19 10 28 15 W 1016,0 - 0,0
12.07.2018 11:00:00 27,8 14,1 8 5 16 9 NW 1015,3 20 0,0
12.07.2018 10:00:00 27,4 14,4 11 6 16 9 WNW 1015,3 - 0,0
12.07.2018 09:00:00 27,1 13,8 5 3 14 7 NNW 1015,0 - 0,0
12.07.2018 08:00:00 26,7 12,0 4 2 17 9 WSW 1014,5 20 0,0
12.07.2018 07:00:00 24,8 11,7 13 7 30 16 WSW 1014,3 - 0,0
12.07.2018 06:00:00 23,9 10,6 16 9 42 23 WSW 1013,7 - 0,0
12.07.2018 05:00:00 23,9 10,9 25 13 48 26 WSW 1013,4 20 0,0
12.07.2018 04:00:00 23,9 10,9 28 15 49 27 WSW 1013,4 - 0,0
12.07.2018 03:00:00 23,5 11,9 30 16 55 30 WSW 1013,7 - 0,0
12.07.2018 02:00:00 23,3 12,9 23 13 63 34 WSW 1013,8 - 0,0
12.07.2018 01:00:00 23,2 15,3 34 18 68 37 WSW 1013,5 - 0,0
12.07.2018 00:00:00 23,1 13,8 30 16 63 34 W 1013,5 - 0,0
11.07.2018 23:00:00 22,9 15,2 29 16 66 36 WSW 1013,3 - 0,0
11.07.2018 22:00:00 22,9 15,5 39 21 82 44 W 1012,6 - 0,0
11.07.2018 21:00:00 23,1 15,4 39 21 86 47 WSW 1012,2 - 0,0
11.07.2018 20:00:00 23,9 16,9 68 37 95 52 W 1010,5 15 0,0
11.07.2018 19:00:00 24,3 16,6 74 40 105 57 W 1010,0 - 0,0
11.07.2018 18:00:00 25,1 16,8 77 41 105 57 W 1009,1 - 0,0
11.07.2018 17:00:00 25,7 16,8 66 36 95 52 W 1009,9 15 0,0
11.07.2018 16:00:00 26,5 16,4 66 36 92 50 W 1009,9 - 0,0
11.07.2018 15:00:00 26,9 15,9 55 30 80 43 W 1010,3 - 0,0

tt = temperature
td = dewpoint
ff = wind speed
fx = gusts
dd = wind direction
ppp = reduced air pressure
vv = visibility
rr = precipitation

Next stations